Location: Unspecified
(43.4354°N, 0.0000°E)
Time: 04:55:18
(UTC+00:00)

Transit 2A - Pass Details

Date: 20 June 2019
Orbit: 594 x 964 km, 66.7° (Epoch: 20 July)

Event Time Altitude Azimuth Distance (km) Brightness Sun altitude
Rises 08:34:21 0° 333° (NNW) 3,490 9.1 43.3°
Reaches altitude 10° 08:37:11 10° 342° (NNW) 2,491 8.6 43.8°
Maximum altitude 08:42:23 34° 47° (NE) 1,283 8.1 44.7°
Drops below altitude 10° 08:47:05 10° 112° (ESE) 2,249 9.4 45.6°
Sets 08:49:32 0° 122° (ESE) 3,107 9.8 46.0°
